Weather in Nikolayevka

Russia / Samara Oblast     53°05′25″N   50°18′47″E
temp.,
°C
wind,
m/s
gust,
m/s
humid.,
%
clouds,
%
prec.,
mm/h
press.,
hPa
HPBL,
m
21 january, fri
fri2101:00−14s249792 0.1 102158
04:00−15sse229880 0.2 102233
07:00−16s2397100 0.1 102252
10:00−15sse359784 0.2 102285
13:00−11sse379664 0.0 1022164
16:00−13sse379746 0.1 1022122
19:00−15sse389764 0.0 1022109
22:00−15sse399899 0.0 1022141
22 january, sat
sat2201:00−12sse41195100 0.1 1021239
04:00−10sse51294100 0.1 1021290
07:00−8sse61493100 0.0 1020384
10:00−7sse71593100 0.1 1021523
13:00−6sse71593100 0.5 1021570
16:00−5sse71393100 1.1 1022541
19:00−6sse61393100 0.2 1024415
22:00−6sse61391100 0.3 1025428
23 january, sun
sun2301:00−6sse61391100 0.2 1026416
04:00−7sse61391100 0.2 1027341
07:00−8se51190100 0.1 1028303
10:00−8se41086100 0.1 1030318
13:00−7se4885100 0.0 1032285
16:00−8ese4985100 0.0 1033251
19:00−11e4890100 0.0 1035132
22:00−11e3889100 0.0 1035152
24 january, mon
mon2401:00−11e3888100 0.0 1036164
04:00−12e3890100 0.0 1037141
07:00−12e4890100 0.0 1037157
10:00−12ese3889100 0.0 1038184
13:00−10ese4983100 0.0 1038228
16:00−10ese4885100 0.0 1038221
19:00−13e3588100 0.0 103881
22:00−15e2391100 0.0 103839
25 january, tue
tue2501:00−18ese2291100 0.0 103826
04:00−19ese229099 0.0 103724
07:00−22ese229598 0.0 103710
10:00−20e2293100 0.0 103734
13:00−13se238499 0.0 1036102
16:00−15ese229099 0.0 103618
19:00−19ese229343 0.0 103519
22:00−20se22945 0.0 103614